AFR5746 LFBD-LFQQ

Flight info

Callsign AFR5746
Flight time 1h 7m
Altitude 34000
Route CNA DCT ADABI DCT BOKNO UN858 VANAD UN874 ARSAF DCT EGOZE DCT PERON N874 CMB
Aircraft E190/M-SDE3GILORVW/S

Departure

Time 2026-05-05 21:27
Airport Bordeaux–Mérignac Airport (LFBD)

Arrival

Time 2026-05-05 22:34
Airport Lille Airport (LFQQ)
Time Latitude Longitude Altitude Speed Heading
2026-05-05 20:57 44.83219 -0.70311 166 ft 0 kts 121°
2026-05-05 21:18 44.83226 -0.70326 166 ft 4 kts 122°
2026-05-05 21:18 44.83240 -0.70358 165 ft 3 kts 119°
2026-05-05 21:18 44.83250 -0.70386 165 ft 4 kts 102°
2026-05-05 21:18 44.83250 -0.70423 165 ft 4 kts 77°
2026-05-05 21:19 44.83248 -0.70434 165 ft 0 kts 77°
2026-05-05 21:20 44.83248 -0.70435 165 ft 0 kts 77°
2026-05-05 21:22 44.83248 -0.70434 165 ft 0 kts 77°
2026-05-05 21:22 44.83256 -0.70413 165 ft 5 kts 62°
2026-05-05 21:22 44.83286 -0.70363 164 ft 9 kts 46°
2026-05-05 21:23 44.83347 -0.70320 164 ft 11 kts 349°
2026-05-05 21:23 44.83418 -0.70291 163 ft 13 kts 44°
2026-05-05 21:23 44.83488 -0.70196 162 ft 15 kts 44°
2026-05-05 21:23 44.83570 -0.70079 161 ft 18 kts 46°
2026-05-05 21:24 44.83631 -0.70009 160 ft 12 kts 19°
2026-05-05 21:24 44.83679 -0.70018 160 ft 0 kts 332°
2026-05-05 21:26 44.83681 -0.70019 160 ft 1 kts 332°
2026-05-05 21:26 44.83711 -0.70039 160 ft 7 kts 336°
2026-05-05 21:26 44.83778 -0.70087 159 ft 14 kts 324°
2026-05-05 21:26 44.83790 -0.70209 160 ft 14 kts 237°
2026-05-05 21:27 44.83714 -0.70321 161 ft 25 kts 224°
2026-05-05 21:27 44.83385 -0.70793 167 ft 110 kts 225°
2026-05-05 21:27 44.82671 -0.71810 338 ft 168 kts 224°
2026-05-05 21:27 44.81818 -0.72932 1554 ft 168 kts 225°
2026-05-05 21:28 44.80908 -0.74175 2379 ft 199 kts 228°
2026-05-05 21:28 44.79898 -0.75670 3147 ft 216 kts 229°
2026-05-05 21:28 44.78839 -0.77288 3210 ft 231 kts 234°
2026-05-05 21:28 44.78148 -0.79343 3291 ft 241 kts 263°
2026-05-05 21:29 44.78312 -0.81686 3511 ft 246 kts 289°
2026-05-05 21:29 44.79248 -0.83703 3783 ft 251 kts 316°
2026-05-05 21:29 44.80790 -0.84876 4070 ft 258 kts 344°
2026-05-05 21:29 44.82595 -0.84908 4371 ft 264 kts
2026-05-05 21:30 44.84411 -0.84471 4681 ft 266 kts
2026-05-05 21:30 44.86239 -0.84019 4977 ft 267 kts
2026-05-05 21:30 44.88072 -0.83560 5265 ft 269 kts
2026-05-05 21:30 44.89914 -0.83071 5557 ft 270 kts
2026-05-05 21:31 44.91761 -0.82542 5835 ft 272 kts 10°
2026-05-05 21:31 44.93551 -0.81685 6083 ft 276 kts 30°
2026-05-05 21:31 44.95042 -0.79964 6368 ft 278 kts 41°
2026-05-05 21:31 44.95982 -0.78732 6533 ft 279 kts 40°
2026-05-05 21:32 44.97424 -0.76901 6788 ft 280 kts 40°
2026-05-05 21:32 44.98874 -0.75061 7039 ft 280 kts 40°
2026-05-05 21:32 45.00330 -0.73220 7277 ft 281 kts 40°
2026-05-05 21:32 45.01791 -0.71374 7522 ft 282 kts 40°
2026-05-05 21:33 45.03255 -0.69529 7753 ft 283 kts 40°
2026-05-05 21:33 45.04730 -0.67665 8084 ft 285 kts 40°
2026-05-05 21:33 45.06233 -0.65780 8745 ft 291 kts 40°
2026-05-05 21:33 45.07753 -0.63872 9592 ft 293 kts 40°
2026-05-05 21:34 45.09285 -0.61943 10303 ft 302 kts 40°
2026-05-05 21:34 45.10896 -0.59906 10741 ft 316 kts 40°
2026-05-05 21:34 45.12549 -0.57805 11476 ft 322 kts 41°
2026-05-05 21:34 45.14228 -0.55693 12310 ft 325 kts 38°
2026-05-05 21:35 45.16185 -0.54117 13162 ft 326 kts 19°
2026-05-05 21:35 45.18349 -0.53119 14015 ft 329 kts 16°
2026-05-05 21:35 45.20546 -0.52129 14820 ft 333 kts 17°
2026-05-05 21:35 45.22758 -0.51114 15661 ft 336 kts 17°
2026-05-05 21:36 45.24997 -0.50082 16480 ft 340 kts 17°
2026-05-05 21:36 45.27258 -0.49038 17287 ft 344 kts 17°
2026-05-05 21:36 45.29546 -0.47980 18089 ft 347 kts 17°
2026-05-05 21:36 45.31859 -0.46909 18770 ft 352 kts 17°
2026-05-05 21:37 45.34198 -0.45827 19399 ft 356 kts 18°
2026-05-05 21:37 45.36567 -0.44731 20048 ft 360 kts 18°
2026-05-05 21:37 45.38956 -0.43627 20651 ft 358 kts 18°
2026-05-05 21:37 45.41336 -0.42528 20845 ft 360 kts 18°
2026-05-05 21:38 45.43733 -0.41420 21139 ft 366 kts 18°
2026-05-05 21:38 45.46179 -0.40294 21702 ft 371 kts 18°
2026-05-05 21:38 45.48645 -0.39157 22329 ft 374 kts 18°
2026-05-05 21:38 45.51135 -0.38007 22967 ft 378 kts 18°
2026-05-05 21:39 45.53647 -0.36848 23595 ft 381 kts 18°
2026-05-05 21:39 45.56151 -0.35694 24131 ft 385 kts 18°
2026-05-05 21:39 45.58705 -0.34514 24714 ft 388 kts 18°
2026-05-05 21:39 45.61285 -0.33325 25279 ft 391 kts 19°
2026-05-05 21:40 45.63885 -0.32126 25818 ft 395 kts 19°
2026-05-05 21:40 45.66459 -0.30725 26309 ft 397 kts 29°
2026-05-05 21:40 45.68824 -0.28665 26830 ft 399 kts 34°
2026-05-05 21:40 45.71157 -0.26474 27324 ft 403 kts 34°
2026-05-05 21:41 45.73516 -0.24286 27798 ft 406 kts 34°
2026-05-05 21:41 45.75899 -0.22078 28270 ft 409 kts 34°
2026-05-05 21:41 45.78300 -0.19856 28727 ft 412 kts 34°
2026-05-05 21:41 45.80723 -0.17613 29175 ft 415 kts 34°
2026-05-05 21:42 45.83159 -0.15358 29617 ft 419 kts 34°
2026-05-05 21:42 45.85614 -0.13082 30040 ft 422 kts 34°
2026-05-05 21:42 45.88092 -0.10785 30358 ft 425 kts 34°
2026-05-05 21:42 45.90638 -0.08602 30660 ft 430 kts 24°
2026-05-05 21:43 45.93545 -0.07604 30976 ft 434 kts
2026-05-05 21:43 45.96569 -0.07707 31324 ft 436 kts 357°
2026-05-05 21:43 45.99607 -0.07920 31621 ft 438 kts 359°
2026-05-05 21:43 46.02665 -0.07900 31898 ft 441 kts
2026-05-05 21:44 46.05733 -0.07590 32177 ft 443 kts
2026-05-05 21:44 46.08771 -0.06884 32512 ft 443 kts 13°
2026-05-05 21:44 46.11754 -0.05795 32868 ft 442 kts 16°
2026-05-05 21:44 46.14711 -0.04553 33215 ft 442 kts 17°
2026-05-05 21:45 46.17642 -0.03210 33530 ft 442 kts 18°
2026-05-05 21:45 46.20562 -0.01792 33833 ft 443 kts 19°
2026-05-05 21:45 46.23473 -0.00321 34004 ft 446 kts 20°
2026-05-05 21:45 46.26423 0.01201 34004 ft 454 kts 20°
2026-05-05 21:46 46.32426 0.04370 34013 ft 464 kts 20°
2026-05-05 21:46 46.38494 0.07629 33953 ft 466 kts 21°
2026-05-05 21:47 46.44566 0.10913 33919 ft 465 kts 21°
2026-05-05 21:47 46.50639 0.14214 33919 ft 466 kts 21°
2026-05-05 21:48 46.56666 0.17500 33915 ft 466 kts 21°
2026-05-05 21:48 46.62731 0.20815 33918 ft 466 kts 21°
2026-05-05 21:49 46.68798 0.24140 33915 ft 466 kts 21°
2026-05-05 21:49 46.74859 0.27471 33917 ft 466 kts 21°
2026-05-05 21:50 46.80917 0.30807 33920 ft 465 kts 21°
2026-05-05 21:50 46.86965 0.34146 33920 ft 465 kts 21°
2026-05-05 21:51 46.93007 0.37490 33919 ft 464 kts 21°
2026-05-05 21:51 46.99044 0.40839 33919 ft 464 kts 21°
2026-05-05 21:52 47.08090 0.45873 33918 ft 463 kts 21°
2026-05-05 21:53 47.14109 0.49233 33919 ft 462 kts 21°
2026-05-05 21:53 47.20110 0.52590 33917 ft 461 kts 21°
2026-05-05 21:54 47.26107 0.55954 33917 ft 461 kts 21°
2026-05-05 21:54 47.32064 0.59302 33921 ft 461 kts 21°
2026-05-05 21:55 47.38051 0.62677 33917 ft 460 kts 21°
2026-05-05 21:55 47.44031 0.66056 33919 ft 460 kts 22°
2026-05-05 21:56 47.50008 0.69441 33919 ft 460 kts 22°
2026-05-05 21:56 47.55985 0.72831 33920 ft 460 kts 22°
2026-05-05 21:57 47.61952 0.76223 33917 ft 459 kts 22°
2026-05-05 21:57 47.67917 0.79625 33922 ft 459 kts 22°
2026-05-05 21:58 47.73882 0.83031 33921 ft 459 kts 22°
2026-05-05 21:58 47.79848 0.86447 33924 ft 459 kts 22°
2026-05-05 21:59 47.85813 0.89867 33923 ft 459 kts 22°
2026-05-05 21:59 47.91771 0.93301 33916 ft 459 kts 22°
2026-05-05 22:00 47.97693 0.96716 33919 ft 459 kts 22°
2026-05-05 22:00 48.03654 1.00161 33925 ft 460 kts 22°
2026-05-05 22:01 48.09622 1.03619 33929 ft 460 kts 22°
2026-05-05 22:01 48.15581 1.07079 33913 ft 457 kts 22°
2026-05-05 22:02 48.21507 1.10537 33935 ft 459 kts 22°
2026-05-05 22:02 48.27582 1.13593 33933 ft 461 kts 19°
2026-05-05 22:03 48.33698 1.16540 33928 ft 462 kts 19°
2026-05-05 22:03 48.39815 1.19514 33925 ft 462 kts 19°
2026-05-05 22:04 48.45926 1.22497 33928 ft 461 kts 19°
2026-05-05 22:04 48.52031 1.25488 33925 ft 462 kts 19°
2026-05-05 22:05 48.58128 1.28510 33931 ft 461 kts 20°
2026-05-05 22:05 48.64204 1.31599 33927 ft 460 kts 20°
2026-05-05 22:06 48.70228 1.34661 33925 ft 459 kts 20°
2026-05-05 22:06 48.76282 1.37745 33924 ft 459 kts 20°
2026-05-05 22:07 48.82328 1.40832 33922 ft 458 kts 20°
2026-05-05 22:07 48.88372 1.43926 33922 ft 458 kts 20°
2026-05-05 22:08 48.94416 1.47027 33918 ft 458 kts 21°
2026-05-05 22:08 48.99185 1.51452 33944 ft 450 kts 48°
2026-05-05 22:09 49.03357 1.58557 33916 ft 449 kts 51°
2026-05-05 22:09 49.07496 1.65714 33906 ft 450 kts 51°
2026-05-05 22:10 49.11644 1.72868 33900 ft 450 kts 51°
2026-05-05 22:10 49.15792 1.80034 33891 ft 451 kts 51°
2026-05-05 22:11 49.19947 1.87228 33895 ft 451 kts 51°
2026-05-05 22:11 49.24096 1.94432 33896 ft 452 kts 51°
2026-05-05 22:12 49.28250 2.01664 33894 ft 452 kts 51°
2026-05-05 22:12 49.30320 2.05274 33705 ft 449 kts 51°
2026-05-05 22:12 49.32348 2.08813 33390 ft 433 kts 51°
2026-05-05 22:12 49.34308 2.12232 32817 ft 423 kts 49°
2026-05-05 22:13 49.36477 2.15226 32337 ft 414 kts 41°
2026-05-05 22:13 49.38667 2.17970 31738 ft 409 kts 41°
2026-05-05 22:13 49.40859 2.20682 31176 ft 402 kts 40°
2026-05-05 22:13 49.43025 2.23360 30622 ft 397 kts 40°
2026-05-05 22:14 49.45164 2.26008 30148 ft 395 kts 40°
2026-05-05 22:14 49.47312 2.28668 29586 ft 399 kts 40°
2026-05-05 22:14 49.49479 2.31357 29096 ft 403 kts 40°
2026-05-05 22:14 49.51673 2.34080 28534 ft 407 kts 40°
2026-05-05 22:15 49.53883 2.36825 27999 ft 409 kts 40°
2026-05-05 22:15 49.56097 2.39578 27473 ft 409 kts 40°
2026-05-05 22:15 49.58308 2.42332 26896 ft 408 kts 40°
2026-05-05 22:15 49.60497 2.45065 26348 ft 404 kts 40°
2026-05-05 22:16 49.62666 2.47775 25826 ft 399 kts 40°
2026-05-05 22:16 49.64811 2.50455 25298 ft 396 kts 40°
2026-05-05 22:16 49.66935 2.53115 24819 ft 391 kts 40°
2026-05-05 22:16 49.69043 2.55759 24268 ft 388 kts 40°
2026-05-05 22:17 49.71128 2.58375 23750 ft 385 kts 40°
2026-05-05 22:17 49.73195 2.60976 23250 ft 381 kts 40°
2026-05-05 22:17 49.75242 2.63551 22720 ft 377 kts 40°
2026-05-05 22:17 49.77269 2.66110 22208 ft 377 kts 40°
2026-05-05 22:18 49.79290 2.68661 21693 ft 375 kts 40°
2026-05-05 22:18 49.81298 2.71198 21284 ft 371 kts 40°
2026-05-05 22:18 49.83298 2.73731 20746 ft 371 kts 40°
2026-05-05 22:18 49.85286 2.76251 20278 ft 368 kts 40°
2026-05-05 22:19 49.87264 2.78760 19764 ft 366 kts 40°
2026-05-05 22:19 49.89226 2.81252 19317 ft 363 kts 40°
2026-05-05 22:19 49.91178 2.83734 18816 ft 362 kts 40°
2026-05-05 22:19 49.93192 2.86048 18323 ft 361 kts 33°
2026-05-05 22:20 49.95330 2.88060 17833 ft 358 kts 32°
2026-05-05 22:20 49.97411 2.90057 17353 ft 354 kts 33°
2026-05-05 22:20 49.99478 2.92073 16931 ft 350 kts 33°
2026-05-05 22:20 50.00866 2.93437 16567 ft 349 kts 33°
2026-05-05 22:21 50.02899 2.95433 16167 ft 344 kts 33°
2026-05-05 22:21 50.04918 2.97418 15710 ft 340 kts 33°
2026-05-05 22:21 50.06915 2.99387 15231 ft 339 kts 34°
2026-05-05 22:21 50.08892 3.01343 14803 ft 336 kts 33°
2026-05-05 22:22 50.10850 3.03281 14362 ft 329 kts 34°
2026-05-05 22:22 50.12763 3.05178 13896 ft 323 kts 34°
2026-05-05 22:22 50.14632 3.07036 13472 ft 315 kts 34°
2026-05-05 22:22 50.16433 3.08826 13080 ft 306 kts 34°
2026-05-05 22:23 50.18227 3.10614 12703 ft 298 kts 34°
2026-05-05 22:23 50.19946 3.12315 12244 ft 294 kts 32°
2026-05-05 22:23 50.21845 3.13388 11828 ft 292 kts
2026-05-05 22:23 50.23812 3.12834 11509 ft 290 kts 335°
2026-05-05 22:24 50.25349 3.10810 11169 ft 293 kts 310°
2026-05-05 22:24 50.26495 3.08168 10781 ft 294 kts 305°
2026-05-05 22:24 50.27650 3.05534 10363 ft 293 kts 307°
2026-05-05 22:24 50.28829 3.02948 9979 ft 291 kts 307°
2026-05-05 22:25 50.30006 3.00397 9564 ft 288 kts 308°
2026-05-05 22:25 50.31178 2.97897 9202 ft 283 kts 308°
2026-05-05 22:25 50.32346 2.95421 8826 ft 281 kts 309°
2026-05-05 22:25 50.33511 2.92970 8476 ft 280 kts 309°
2026-05-05 22:26 50.34680 2.90518 8115 ft 280 kts 309°
2026-05-05 22:26 50.35847 2.88071 7722 ft 280 kts 309°
2026-05-05 22:26 50.37014 2.85635 7332 ft 278 kts 309°
2026-05-05 22:26 50.38163 2.83227 7012 ft 273 kts 309°
2026-05-05 22:27 50.39296 2.80851 6611 ft 271 kts 309°
2026-05-05 22:27 50.40570 2.78726 6198 ft 265 kts 329°
2026-05-05 22:27 50.42259 2.77831 5931 ft 254 kts 355°
2026-05-05 22:27 50.44001 2.77590 5600 ft 250 kts 356°
2026-05-05 22:28 50.45716 2.77256 5267 ft 248 kts 354°
2026-05-05 22:28 50.47407 2.76853 4927 ft 240 kts 353°
2026-05-05 22:28 50.49011 2.76438 4602 ft 226 kts 353°
2026-05-05 22:28 50.50521 2.76170 4297 ft 212 kts
2026-05-05 22:29 50.51878 2.76901 4046 ft 207 kts 35°
2026-05-05 22:29 50.52788 2.78625 3798 ft 209 kts 66°
2026-05-05 22:29 50.53048 2.80856 3560 ft 207 kts 85°
2026-05-05 22:29 50.53050 2.83085 3219 ft 201 kts 87°
2026-05-05 22:30 50.53046 2.85243 2875 ft 196 kts 85°
2026-05-05 22:30 50.53185 2.87352 2638 ft 188 kts 77°
2026-05-05 22:30 50.53439 2.89221 2561 ft 165 kts 73°
2026-05-05 22:30 50.53691 2.90907 2392 ft 150 kts 72°
2026-05-05 22:31 50.53982 2.92551 2268 ft 153 kts 71°
2026-05-05 22:31 50.54209 2.94042 2109 ft 135 kts 74°
2026-05-05 22:31 50.54392 2.95526 1524 ft 140 kts 76°
2026-05-05 22:31 50.54531 2.96991 1294 ft 131 kts 75°
2026-05-05 22:32 50.54720 2.98401 1337 ft 135 kts 72°
2026-05-05 22:32 50.54981 2.99849 1187 ft 140 kts 71°
2026-05-05 22:32 50.55204 3.01292 1014 ft 131 kts 72°
2026-05-05 22:32 50.55442 3.02660 825 ft 128 kts 70°
2026-05-05 22:33 50.55655 3.04013 722 ft 128 kts 72°
2026-05-05 22:33 50.55853 3.05364 607 ft 125 kts 74°
2026-05-05 22:33 50.56055 3.06718 407 ft 127 kts 73°
2026-05-05 22:33 50.56246 3.08071 226 ft 126 kts 71°
2026-05-05 22:34 50.56438 3.09324 157 ft 105 kts 78°
2026-05-05 22:34 50.56550 3.10173 154 ft 56 kts 76°
2026-05-05 22:34 50.56632 3.10731 145 ft 50 kts 77°
2026-05-05 22:34 50.56707 3.11233 146 ft 44 kts 76°
2026-05-05 22:35 50.56749 3.11529 148 ft 18 kts 79°
2026-05-05 22:35 50.56840 3.11613 145 ft 19 kts 347°
2026-05-05 22:35 50.56941 3.11502 144 ft 19 kts 272°
2026-05-05 22:35 50.56916 3.11303 146 ft 19 kts 258°
2026-05-05 22:36 50.56885 3.11091 144 ft 21 kts 257°
2026-05-05 22:36 50.56856 3.10867 146 ft 14 kts 257°
2026-05-05 22:36 50.56859 3.10766 147 ft 9 kts 307°
2026-05-05 22:36 50.56914 3.10727 148 ft 10 kts 345°
2026-05-05 22:37 50.56988 3.10698 149 ft 11 kts 347°
2026-05-05 22:37 50.57020 3.10649 151 ft 5 kts 311°
2026-05-05 22:37 50.57059 3.10626 152 ft 6 kts 346°
2026-05-05 22:37 50.57099 3.10612 154 ft 2 kts 347°
2026-05-05 22:38 50.57109 3.10608 155 ft 1 kts 347°